Weather History for KGAD - December, 2013

Change the Weather History Date:

Friday, December 6, 2013

  Actual Average Record
Temperature  
Mean Temperature 58 °F -  
Max Temperature 75 °F 54 °F 77 °F (1998)
Min Temperature 41 °F 33 °F 17 °F (1937)
Degree Days  
Heating Degree Days 7    
Growing Degree Days 8 (Base 50)    
Moisture  
Dew Point 53 °F    
Average Humidity 80    
Maximum Humidity 88    
Minimum Humidity 65    
Precipitation  
Precipitation 0.64 in - - ()
Sea Level Pressure  
Sea Level Pressure 30.01 in    
Wind  
Wind Speed 7 mph (West)    
Max Wind Speed 15 mph    
Max Gust Speed 30 mph    
Visibility 10 miles    
Events      
Averages and records for this station are not official NWS values.
T = Trace of Precipitation, MM = Missing Value Source: NWS Daily Summary

Daily Weather History Graph

Daily Weather History Graph

Search for Another Location

Airport or City:

Trip Planner

Search our weather history database for the weather conditions in past years. The results will help you decide how hot, cold, wet, or windy it might be!

Date:

Astronomy

Dec. 06, 2013 Rise Set
Actual Time 6:35 AM CST 4:35 PM CST
Civil Twilight 6:08 AM CST 5:02 PM CST
Nautical Twilight 5:37 AM CST 5:33 PM CST
Astronomical Twilight 5:07 AM CST 6:03 PM CST
Moon 9:47 AM CST (12/6) 8:58 PM CST (12/6)
Length of Visible Light 10h 54m
Length of Day
9h 59m
Waxing Crescent, 19% of the Moon is Illuminated
Dec 6
Waxing Crescent
Dec 9
First Quarter
Dec 17
Full
Dec 25
Last Quarter
Jan 1
New

Hourly Weather History & Observations

Time (CST) Temp. Windchill Dew Point Humidity Pressure Visibility Wind Dir Wind Speed Gust Speed Precip Events Conditions
12:15 AM 69.8 °F - 64.4 °F 83% 29.96 in 10.0 mi South 4.6 mph - N/A   Overcast
12:35 AM 69.8 °F - 64.4 °F 83% 29.96 in 10.0 mi SSW 6.9 mph - N/A   Overcast
12:55 AM 69.8 °F - 64.4 °F 83% 29.95 in 10.0 mi SSW 5.8 mph - N/A   Overcast
1:15 AM 69.8 °F - 64.4 °F 83% 29.94 in 10.0 mi SSW 8.1 mph - N/A   Overcast
1:35 AM 69.8 °F - 64.4 °F 83% 29.94 in 10.0 mi South 5.8 mph - N/A   Overcast
1:55 AM 69.8 °F - 64.4 °F 83% 29.94 in 10.0 mi South 5.8 mph - N/A   Overcast
2:15 AM 69.8 °F - 64.4 °F 83% 29.93 in 10.0 mi South 4.6 mph - N/A   Overcast
2:35 AM 69.8 °F - 64.4 °F 83% 29.93 in 10.0 mi SSW 4.6 mph - N/A   Overcast
2:55 AM 69.8 °F - 64.4 °F 83% 29.93 in 10.0 mi SSW 6.9 mph - N/A   Overcast
3:15 AM 71.6 °F - 64.4 °F 78% 29.93 in 10.0 mi SSW 10.4 mph - N/A   Mostly Cloudy
3:35 AM 71.6 °F - 64.4 °F 78% 29.93 in 10.0 mi South 5.8 mph - N/A   Overcast
3:55 AM 71.6 °F - 64.4 °F 78% 29.94 in 10.0 mi SSW 9.2 mph 18.4 mph N/A   Overcast
4:15 AM 71.6 °F - 64.4 °F 78% 29.94 in 10.0 mi SSW 8.1 mph - N/A   Overcast
4:35 AM 71.6 °F - 64.4 °F 78% 29.94 in 10.0 mi South 9.2 mph 16.1 mph N/A   Overcast
4:55 AM 71.6 °F - 64.4 °F 78% 29.94 in 10.0 mi SSW 8.1 mph 17.3 mph N/A   Overcast
5:15 AM 69.8 °F - 64.4 °F 83% 29.94 in 10.0 mi South 8.1 mph 16.1 mph N/A   Overcast
5:35 AM 69.8 °F - 64.4 °F 83% 29.95 in 9.0 mi SSW 9.2 mph - N/A   Overcast
5:55 AM 69.8 °F - 64.4 °F 83% 29.95 in 10.0 mi SSW 10.4 mph 16.1 mph N/A   Overcast
6:15 AM 60.8 °F - 53.6 °F 77% 29.97 in 8.0 mi NW 6.9 mph - 0.08 in   Overcast
6:35 AM 57.2 °F - 51.8 °F 82% 29.98 in 9.0 mi NW 6.9 mph - 0.18 in   Overcast
6:55 AM 53.6 °F - 50.0 °F 88% 29.98 in 8.0 mi North 8.1 mph - 0.23 in   Overcast
7:15 AM 53.6 °F - 48.2 °F 82% 29.99 in 9.0 mi NNW 6.9 mph - 0.02 in   Overcast
7:35 AM 53.6 °F - 50.0 °F 88% 30.00 in 10.0 mi NNW 4.6 mph - 0.02 in   Overcast
7:55 AM 53.6 °F - 48.2 °F 82% 30.00 in 10.0 mi North 5.8 mph - 0.03 in   Overcast
8:15 AM 53.6 °F - 50.0 °F 88% 30.01 in 10.0 mi Calm Calm - N/A   Overcast
8:35 AM 53.6 °F - 50.0 °F 88% 30.01 in 10.0 mi Calm Calm - N/A   Overcast
8:55 AM 55.4 °F - 51.8 °F 88% 30.00 in 10.0 mi Calm Calm - N/A   Overcast
9:15 AM 55.4 °F - 50.0 °F 82% 30.00 in 10.0 mi Calm Calm - N/A   Overcast
9:35 AM 55.4 °F - 51.8 °F 88% 29.99 in 10.0 mi Calm Calm - N/A   Overcast
9:55 AM 57.2 °F - 53.6 °F 88% 29.99 in 10.0 mi Calm Calm - N/A   Overcast
10:15 AM 60.8 °F - 55.4 °F 82% 29.98 in 10.0 mi Calm Calm - N/A   Overcast
10:35 AM 62.6 °F - 57.2 °F 82% 29.98 in 10.0 mi Calm Calm - N/A   Overcast
10:55 AM 71.6 °F - 64.4 °F 78% 29.97 in 10.0 mi SSW 9.2 mph - N/A   Overcast
11:15 AM 73.4 °F - 64.4 °F 73% 29.96 in 10.0 mi South 10.4 mph 23.0 mph N/A   Overcast
11:35 AM 73.4 °F - 64.4 °F 73% 29.96 in 10.0 mi SSW 10.4 mph - N/A   Overcast
11:55 AM 75.2 °F - 64.4 °F 69% 29.95 in 10.0 mi South 8.1 mph 16.1 mph N/A   Overcast
12:15 PM 75.2 °F - 64.4 °F 69% 29.95 in 10.0 mi SSW 15.0 mph 21.9 mph N/A   Overcast
12:35 PM 75.2 °F - 62.6 °F 65% 29.94 in 10.0 mi South 12.7 mph 24.2 mph N/A   Overcast
12:55 PM 73.4 °F - 64.4 °F 73% 29.94 in 10.0 mi SSW 11.5 mph 18.4 mph N/A   Mostly Cloudy
1:15 PM 71.6 °F - 64.4 °F 78% 29.93 in 9.0 mi SSW 5.8 mph - N/A   Mostly Cloudy
1:35 PM 71.6 °F - 64.4 °F 78% 29.94 in 10.0 mi SW 10.4 mph 29.9 mph N/A   Mostly Cloudy
1:55 PM 73.4 °F - 64.4 °F 73% 29.94 in 10.0 mi WSW 11.5 mph 17.3 mph N/A   Mostly Cloudy
2:15 PM 73.4 °F - 64.4 °F 73% 29.94 in 10.0 mi WSW 9.2 mph 17.3 mph N/A   Overcast
2:35 PM 69.8 °F - 59.0 °F 68% 29.94 in 10.0 mi NNW 9.2 mph - N/A   Overcast
2:55 PM 64.4 °F - 59.0 °F 83% 29.94 in 10.0 mi Calm Calm - 0.04 in   Mostly Cloudy
3:15 PM 62.6 °F - 57.2 °F 82% 29.95 in 10.0 mi NNW 11.5 mph - N/A   Mostly Cloudy
3:35 PM 60.8 °F - 53.6 °F 77% 29.96 in 10.0 mi NNW 10.4 mph - N/A   Overcast
3:55 PM 55.4 °F - 50.0 °F 82% 29.98 in 10.0 mi NNW 5.8 mph - N/A   Overcast
4:15 PM 53.6 °F - 48.2 °F 82% 29.99 in 10.0 mi NNW 9.2 mph - N/A   Overcast
4:35 PM 51.8 °F - 46.4 °F 82% 30.00 in 10.0 mi NNW 9.2 mph - N/A   Overcast
4:55 PM 50.0 °F - 44.6 °F 82% 30.01 in 10.0 mi NNW 10.4 mph 18.4 mph N/A   Overcast
5:15 PM 48.2 °F - 44.6 °F 87% 30.04 in 10.0 mi NW 11.5 mph 19.6 mph N/A   Overcast
5:35 PM 46.4 °F 41.9 °F 41.0 °F 81% 30.05 in 10.0 mi NW 9.2 mph - N/A   Overcast
5:55 PM 46.4 °F 42.9 °F 39.2 °F 76% 30.07 in 10.0 mi NW 6.9 mph - N/A   Overcast
6:15 PM 46.4 °F 42.4 °F 39.2 °F 76% 30.08 in 10.0 mi NW 8.1 mph - N/A   Overcast
6:35 PM 44.6 °F 40.7 °F 39.2 °F 81% 30.09 in 8.0 mi North 6.9 mph - 0.13 in   Overcast
6:55 PM 44.6 °F 40.7 °F 39.2 °F 81% 30.10 in 10.0 mi NW 6.9 mph - 0.15 in   Overcast
7:15 PM 44.6 °F 40.2 °F 39.2 °F 81% 30.10 in 10.0 mi NW 8.1 mph - 0.02 in   Overcast
7:35 PM 42.8 °F 38.0 °F 39.2 °F 87% 30.12 in 10.0 mi WNW 8.1 mph - 0.05 in   Overcast
7:55 PM 42.8 °F 39.3 °F 37.4 °F 81% 30.12 in 10.0 mi NW 5.8 mph - 0.08 in   Overcast
8:15 PM 42.8 °F 40.1 °F 37.4 °F 81% 30.11 in 6.0 mi NNW 4.6 mph - 0.10 in   Overcast
8:35 PM 42.8 °F 41.1 °F 37.4 °F 81% 30.12 in 10.0 mi NNW 3.5 mph - 0.11 in   Overcast
8:55 PM 42.8 °F 39.3 °F 37.4 °F 81% 30.15 in 10.0 mi NW 5.8 mph - 0.11 in   Overcast
9:15 PM 42.8 °F 40.1 °F 37.4 °F 81% 30.15 in 10.0 mi NW 4.6 mph - N/A   Overcast
9:35 PM 42.8 °F 38.6 °F 37.4 °F 81% 30.15 in 10.0 mi North 6.9 mph - N/A   Overcast
9:55 PM 42.8 °F 40.1 °F 37.4 °F 81% 30.16 in 10.0 mi NNW 4.6 mph - N/A   Overcast
10:15 PM 42.8 °F 40.1 °F 37.4 °F 81% 30.18 in 10.0 mi NW 4.6 mph - N/A   Overcast
10:35 PM 42.8 °F 37.5 °F 37.4 °F 81% 30.19 in 10.0 mi NNW 9.2 mph - N/A   Overcast
10:55 PM 42.8 °F 37.0 °F 37.4 °F 81% 30.20 in 10.0 mi NNW 10.4 mph - N/A   Overcast
11:15 PM 42.8 °F 38.0 °F 35.6 °F 76% 30.20 in 10.0 mi NNW 8.1 mph - N/A   Overcast
11:35 PM 41.0 °F 33.5 °F 35.6 °F 81% 30.20 in 10.0 mi NNW 13.8 mph 17.3 mph N/A   Overcast
11:55 PM 41.0 °F 35.2 °F 35.6 °F 81% 30.21 in 10.0 mi NW 9.2 mph - N/A   Overcast